Home > Weather > Kunming > Past weeks

Flag for China Past Weather in Kunming, Yunnan, China — Yesterday and Last 2 Weeks

Now
63 °F

Passing clouds.


Feels Like: 63 °F
Forecast: 63 / 76 °F
Wind: 1 mph from North

Location: Kunming Airport

Current Time: Aug 26, 2016 at 2:40:55 AM

Latest Report: Aug 26, 2016 at 2:00 AM


Visibility: N/A

Pressure: 30.18 "Hg (24.10 "Hg at 1909m altitude)

Humidity: 94%

Dew Point: 61 °F

Location of KunmingLocation

Past Weather in Kunming — Graph

°F

Kunming Temperature Yesterday

Maximum temperature yesterday: 81 °F (at 2:00 PM)
Minimum temperature yesterday: 59 °F (at 6:00 AM)
Average temperature yesterday: 70 °F

High & Low Weather Summary for the Past Weeks

 TemperatureHumidityPressure
High84 °F (Aug 18, 4:00 PM)100% (Aug 11, 1:00 AM)30.21 "Hg (Aug 11, 1:00 AM)
Low59 °F (Aug 13, 5:00 AM)42% (Aug 25, 4:00 PM)29.83 "Hg (Aug 18, 4:00 PM)
Average68 °F84%30.04 "Hg
* Reported Aug 11 1:00 AM — Aug 26 1:00 AM, Kunming, Weather by CustomWeather, © 2016

Note: Actual official high and low records may vary slightly from our data, if they occured in-between our weather recording intervals... More about our weather records

Advertising

Kunming Weather History for the Previous 24 Hours

Scroll right to see more
 ConditionsComfort  
Time TempWeatherWind HumidityBarometerVisibility
1:00 AM
Fri, Aug 26
64 °FPassing clouds.3 mph88%30.18 "HgN/A
12:00 AM66 °FPassing clouds.1 mph88%30.21 "HgN/A
11:00 PM
Thu, Aug 25
68 °FClear.1 mph78%30.18 "Hg10 mi
10:00 PM72 °FPassing clouds.3 mph69%30.18 "HgN/A
9:00 PM70 °FPassing clouds.6 mph73%30.15 "HgN/A
8:00 PM73 °FPassing clouds.3 mph57%30.12 "HgN/A
7:00 PM77 °FPassing clouds.3 mph51%30.09 "HgN/A
6:00 PM79 °FScattered clouds.6 mph48%30.09 "HgN/A
5:00 PM81 °FScattered clouds.8 mph45%30.09 "HgN/A
4:00 PM81 °FScattered clouds.6 mph42%30.09 "HgN/A
3:00 PM79 °FScattered clouds.3 mph51%30.15 "HgN/A
2:00 PM81 °FScattered clouds.6 mph45%30.15 "HgN/A
1:00 PM77 °FScattered clouds.3 mph54%30.18 "HgN/A
12:00 PM75 °FPassing clouds.3 mph57%30.21 "HgN/A
11:00 AM73 °FPassing clouds.3 mph57%30.21 "HgN/A
10:00 AM72 °FPassing clouds.1 mph69%30.21 "HgN/A
9:00 AM68 °FPassing clouds.1 mph83%30.21 "Hg5 mi
8:00 AM63 °FPassing clouds.1 mph94%30.18 "Hg4 mi
7:00 AM61 °FScattered clouds.1 mph100%30.18 "Hg4 mi
6:00 AM59 °FPassing clouds.1 mph100%30.15 "Hg4 mi
5:00 AM61 °FPassing clouds.1 mph100%30.15 "HgN/A
4:00 AM63 °FPassing clouds.3 mph94%30.12 "HgN/A
3:00 AM61 °FPassing clouds.1 mph100%30.12 "HgN/A
2:00 AM63 °FClear.1 mph94%30.15 "Hg10 mi
Weather by CustomWeather, © 2016

See weather overviewHow to use our weather pages